Abilene, TX

9:59 PM CDT on August 24, 2016 (GMT -0500)
Abilene Regional

Weather History for KABI - March, 2013

Change the Weather History Date:

Thursday, March 21, 2013

  Actual Average Record
Temperature  
Mean Temperature 69 °F 58 °F  
Max Temperature 85 °F 70 °F 98 °F (1916)
Min Temperature 53 °F 45 °F 25 °F (1913)
Degree Days  
Heating Degree Days 0 8  
Month to date heating degree days 170 225  
Since 1 July heating degree days 2005 2358  
Cooling Degree Days 4 1  
Month to date cooling degree days 26 16  
Year to date cooling degree days 32 21  
Growing Degree Days 18 (Base 50)    
Moisture  
Dew Point 40 °F    
Average Humidity 35    
Maximum Humidity 56    
Minimum Humidity 14    
Precipitation  
Precipitation 0.00 in 0.05 in 0.77 in (1948)
Month to date precipitation T 1.18  
Year to date precipitation 1.89 3.56  
Sea Level Pressure  
Sea Level Pressure 29.63 in    
Wind  
Wind Speed 18 mph (SSW)    
Max Wind Speed 29 mph    
Max Gust Speed 39 mph    
Visibility 10 miles    
Events      
T = Trace of Precipitation, MM = Missing Value Source: NWS Daily Summary

Daily Weather History Graph

Daily Weather History Graph

Search for Another Location

Airport or City:

Trip Planner

Search our weather history database for the weather conditions in past years. The results will help you decide how hot, cold, wet, or windy it might be!

Date:

Astronomy

Mar. 21, 2013 Rise Set
Actual Time 7:40 AM CDT 7:51 PM CDT
Civil Twilight 7:16 AM CDT 8:15 PM CDT
Nautical Twilight 6:47 AM CDT 8:44 PM CDT
Astronomical Twilight 6:18 AM CDT 9:13 PM CDT
Moon 2:38 PM CDT (3/21) 3:47 AM CDT (3/21)
Length of Visible Light 12h 59m
Length of Day
12h 10m
Waxing Gibbous, 69% of the Moon is Illuminated
Mar 21
Waxing Gibbous
Mar 27
Full
Apr 2
Last Quarter
Apr 10
New
Apr 18
First Quarter

Hourly Weather History & Observations

Time (CDT) Temp. Dew Point Humidity Pressure Visibility Wind Dir Wind Speed Gust Speed Precip Events Conditions
12:52 AM 54.0 °F 30.0 °F 40% 29.92 in 10.0 mi SSE 15.0 mph - N/A   Clear
1:52 AM 54.0 °F 30.9 °F 41% 29.88 in 10.0 mi SSE 15.0 mph - N/A   Clear
2:52 AM 54.0 °F 30.9 °F 41% 29.84 in 10.0 mi SSE 19.6 mph 27.6 mph N/A   Clear
3:52 AM 55.0 °F 30.9 °F 40% 29.80 in 10.0 mi South 20.7 mph 31.1 mph N/A   Clear
4:52 AM 54.0 °F 33.1 °F 45% 29.77 in 10.0 mi South 18.4 mph 26.5 mph N/A   Clear
5:52 AM 55.0 °F 35.1 °F 47% 29.74 in 10.0 mi South 15.0 mph 25.3 mph N/A   Clear
6:52 AM 54.0 °F 36.0 °F 51% 29.73 in 10.0 mi South 16.1 mph 27.6 mph N/A   Clear
7:52 AM 53.1 °F 37.9 °F 57% 29.73 in 10.0 mi South 13.8 mph 24.2 mph N/A   Clear
8:52 AM 55.0 °F 39.9 °F 57% 29.71 in 10.0 mi South 18.4 mph 25.3 mph N/A   Clear
9:52 AM 59.0 °F 41.0 °F 51% 29.69 in 10.0 mi South 23.0 mph 32.2 mph N/A   Clear
10:52 AM 64.0 °F 46.0 °F 52% 29.68 in 10.0 mi South 26.5 mph 34.5 mph N/A   Clear
11:52 AM 64.9 °F 48.0 °F 54% 29.65 in 10.0 mi South 24.2 mph 32.2 mph N/A   Clear
12:52 PM 71.1 °F 51.1 °F 49% 29.62 in 10.0 mi SSW 19.6 mph 33.4 mph N/A   Clear
1:52 PM 73.9 °F 52.0 °F 46% 29.57 in 10.0 mi SSW 27.6 mph 36.8 mph N/A   Clear
2:52 PM 77.0 °F 51.1 °F 40% 29.53 in 10.0 mi SW 18.4 mph 26.5 mph N/A   Clear
3:52 PM 82.0 °F 46.9 °F 29% 29.47 in 10.0 mi WSW 12.7 mph 24.2 mph N/A   Clear
4:52 PM 82.0 °F 43.0 °F 25% 29.44 in 10.0 mi West 17.3 mph 26.5 mph N/A   Clear
5:52 PM 84.0 °F 36.0 °F 18% 29.43 in 10.0 mi West 15.0 mph - N/A   Clear
6:52 PM 84.9 °F 30.9 °F 14% 29.42 in 10.0 mi West 17.3 mph 21.9 mph N/A   Clear
7:52 PM 79.0 °F 30.0 °F 17% 29.43 in 10.0 mi SW 8.1 mph - N/A   Clear
8:52 PM 73.9 °F 32.0 °F 21% 29.44 in 10.0 mi South 9.2 mph - N/A   Clear
9:52 PM 75.0 °F 48.0 °F 38% 29.46 in 10.0 mi SSW 17.3 mph 25.3 mph N/A   Clear
10:52 PM 72.0 °F 48.9 °F 44% 29.49 in 10.0 mi SSW 13.8 mph - N/A   Clear
11:52 PM 70.0 °F 51.1 °F 51% 29.49 in 10.0 mi SSW 17.3 mph - N/A   Clear